Regional Weather Roundup
Issued by NWS

Home | Current Version | Previous Version | Text Only | Print | Product List | Glossary On
Versions: 1 2 3 4 5 6 7 8 9 10 11 12 13 14 15 16 17 18 19 20 21 22 23 24 25 26 27 28 29 30 31 32 33 34 35 36 37 38 39 40 41 42 43 44 45 46 47 48 49 50
000
ASUS46 KSEW 011610
RWRWA

WASHINGTON REGIONAL WEATHER ROUNDUP
NATIONAL WEATHER SERVICE SEATTLE WA
900 AM PDT WED OCT 01 2014

NOTE:"FAIR" INDICATES FEW OR NO CLOUDS BELOW 12,000 FEET WITH NO
SIGNIFICANT WEATHER AND/OR OBSTRUCTIONS TO VISIBILITY.

WAZ505-507>509-011700-
SEATTLE, TACOMA, EVERETT, AND VICINITY

CITY           SKY/WX    TMP DP  RH WIND       PRES   REMARKS
EVERETT        CLOUDY    54  50  86 S5        30.22R
BOEING FIELD   CLOUDY    56  51  84 SW3       30.23R
RENTON         CLOUDY    55  52  89 CALM      30.22R
SEATAC AIRPORT PTSUNNY   53  50  89 SW3       30.23R
JBLM-MCCHORD   PTSUNNY   51  50  99 CALM      30.23R
PUYALLUP       NOT AVBL
JBLM-FT LEWIS  SUNNY     52  51  97 SE2       30.22S
TACOMA NARROWS CLOUDY    53  50  89 S6        30.23R
$$

WAZ001-503-506-510-514-515-011700-
NORTH INTERIOR

CITY           SKY/WX    TMP DP  RH WIND       PRES   REMARKS
BELLINGHAM     PTSUNNY   57  51  80 S6        30.19R
FRIDAY HARBOR  PTSUNNY   52  51  97 CALM      30.21R
EASTSOUND      CLOUDY    55  52  88 MISG      30.18S
PORT ANGELES   SUNNY     54  42  64 W14       30.21R
NAS WHIDBEY    CLOUDY    59  50  72 SW7       30.21S
BURLINGTON     CLOUDY    55  54  94 CALM      30.22R
$$

WAZ020-022-039-040-504-511-512-011700-
SOUTHWEST INTERIOR

CITY           SKY/WX    TMP DP  RH WIND       PRES   REMARKS
SHELTON        CLOUDY    49  47  93 W5        30.21R
OLYMPIA        FOG       46  46 100 W5        30.23R VSB 1/4
CHEHALIS       FAIR      48  48 100 SW5       30.24R
KELSO          CLOUDY    52  46  82 CALM      30.29R
VANCOUVER      CLOUDY    54  51  90 CALM      30.25S
SCAPPOOSE, OR  CLOUDY    49  48  97 CALM      30.25R
PORTLAND, OR   PTSUNNY   53  51  93 CALM      30.25S
$$

WAZ021-516-517-011700-
WASHINGTON COAST

CITY           SKY/WX    TMP DP  RH WIND       PRES   REMARKS
FORKS          PTSUNNY   52  50  93 CALM      30.23R FOG
HOQUIAM        SUNNY     55  53  93 CALM      30.23R FOG
ASTORIA, OR    MOSUNNY   51  50  96 E5        30.23S FOG
$$

WAZ019-023-024-040-518-519-011700-
CASCADE MOUNTAINS AND COLUMBIA GORGE

CITY           SKY/WX    TMP DP  RH WIND       PRES   REMARKS
STAMPEDE PASS  NOT AVBL
TROUTDALE, OR  CLOUDY    52  50  93 CALM      30.24S
THE DALLES, OR SUNNY     58  46  64 NW9       30.19S
$$

WAZ026-027-041>044-520-521-011700-
EAST SLOPES

CITY           SKY/WX    TMP DP  RH WIND       PRES   REMARKS
OMAK           MOSUNNY   46  37  71 CALM      30.12S
WENATCHEE      SUNNY     57  37  47 NW7       30.12S
ELLENSBURG     SUNNY     54  40  59 MISG      30.14S
YAKIMA         SUNNY     50  40  68 CALM      30.16S
$$

WAZ028-034-035-011700-
COLUMBIA BASIN

CITY           SKY/WX    TMP DP  RH WIND       PRES   REMARKS
EPHRATA        SUNNY     56  36  47 SW3       30.11S
MOSES LAKE     MOSUNNY   49  40  71 SE3       30.13R
PASCO          SUNNY     56  46  69 S6        30.16S
HERMISTON, OR  SUNNY     58  42  55 W10       30.18R
$$

WAZ036>038-011700-
NORTHEAST WASHINGTON

CITY           SKY/WX    TMP DP  RH WIND       PRES   REMARKS
SPOKANE GEIGER MOSUNNY   42  35  76 S9        30.11S
SPOKANE FELTS  SUNNY     47  39  74 NE3       30.13R
FAIRCHILD AFB  SUNNY     45  36  71 S10       30.11R
COEURDALENE,ID MOSUNNY   46  39  76 S9        30.12R
DEER PARK      SUNNY     41  38  89 SE7       30.12R
$$

WAZ029>033-011700-
SOUTHEAST WASHINGTON

CITY           SKY/WX    TMP DP  RH WIND       PRES   REMARKS
PULLMAN        SUNNY     47  41  80 CALM      30.16R
LEWISTON, ID   SUNNY     50  44  80 NE6       30.16R
WALLA WALLA    SUNNY     56  42  59 S12       30.19R
PENDLETON, OR  SUNNY     52  40  63 SE5       30.18S
$$


USA.gov is the U.S. government's official web portal to all federal, state and local government web resources and services.